TimePST,TemperatureF,Dew PointF,Humidity,Sea Level PressureIn,VisibilityMPH,Wind Direction,Wind SpeedMPH,Gust SpeedMPH,PrecipitationIn,Events,Conditions,WindDirDegrees,DateUTC
12:15 AM,42.8,39.2,87,30.01,10.0,East,8.1,-,N/A,,Mostly Cloudy,90,2011-11-21 08:15:00
12:55 AM,42.8,39.2,87,30.03,10.0,ESE,4.6,-,N/A,,Partly Cloudy,110,2011-11-21 08:55:00
1:15 AM,42.8,39.2,87,30.03,10.0,East,3.5,-,N/A,,Mostly Cloudy,100,2011-11-21 09:15:00
1:35 AM,42.8,37.4,81,30.04,10.0,ESE,4.6,-,N/A,,Partly Cloudy,110,2011-11-21 09:35:00
2:15 AM,41.0,37.4,87,30.05,10.0,ESE,4.6,-,N/A,,Clear,110,2011-11-21 10:15:00
2:35 AM,41.0,37.4,87,30.06,10.0,East,5.8,-,N/A,,Clear,100,2011-11-21 10:35:00
2:55 AM,41.0,37.4,87,30.06,10.0,East,6.9,-,N/A,,Clear,100,2011-11-21 10:55:00
3:15 AM,41.0,37.4,87,30.07,10.0,East,8.1,-,N/A,,Clear,100,2011-11-21 11:15:00
3:35 AM,41.0,37.4,87,30.06,10.0,East,9.2,-,N/A,,Clear,100,2011-11-21 11:35:00
3:55 AM,41.0,37.4,87,30.06,10.0,East,9.2,-,N/A,,Clear,100,2011-11-21 11:55:00
4:15 AM,41.0,35.6,81,30.06,10.0,East,8.1,-,N/A,,Clear,100,2011-11-21 12:15:00
4:35 AM,39.2,35.6,87,30.07,10.0,East,6.9,-,N/A,,Clear,100,2011-11-21 12:35:00
5:15 AM,39.2,35.6,87,30.08,10.0,ESE,5.8,-,N/A,,Clear,110,2011-11-21 13:15:00
5:35 AM,39.2,35.6,87,30.09,10.0,ESE,5.8,-,N/A,,Clear,110,2011-11-21 13:35:00
5:55 AM,39.2,35.6,87,30.10,10.0,East,4.6,-,N/A,,Scattered Clouds,100,2011-11-21 13:55:00
6:35 AM,39.2,35.6,87,30.11,10.0,East,4.6,-,N/A,,Clear,90,2011-11-21 14:35:00
6:55 AM,39.2,35.6,87,30.11,10.0,Calm,Calm,-,N/A,,Clear,0,2011-11-21 14:55:00
7:15 AM,39.2,35.6,87,30.12,10.0,East,8.1,-,N/A,,Partly Cloudy,100,2011-11-21 15:15:00
7:35 AM,39.2,35.6,87,30.14,10.0,East,6.9,-,N/A,,Scattered Clouds,100,2011-11-21 15:35:00
7:55 AM,42.8,35.6,76,30.15,10.0,ESE,4.6,-,N/A,,Overcast,120,2011-11-21 15:55:00
8:15 AM,42.8,35.6,76,30.15,10.0,ESE,4.6,-,N/A,,Mostly Cloudy,110,2011-11-21 16:15:00
8:35 AM,44.6,37.4,76,30.16,10.0,ESE,6.9,-,N/A,,Scattered Clouds,110,2011-11-21 16:35:00
8:55 AM,44.6,37.4,76,30.17,10.0,ESE,6.9,-,N/A,,Clear,110,2011-11-21 16:55:00
9:15 AM,46.4,37.4,71,30.17,10.0,ESE,6.9,-,N/A,,Clear,110,2011-11-21 17:15:00
9:35 AM,48.2,37.4,66,30.17,10.0,ESE,6.9,-,N/A,,Clear,120,2011-11-21 17:35:00
9:55 AM,48.2,37.4,66,30.19,10.0,SSE,4.6,-,N/A,,Clear,150,2011-11-21 17:55:00
10:15 AM,50.0,37.4,62,30.19,10.0,SE,5.8,-,N/A,,Clear,140,2011-11-21 18:15:00
10:35 AM,51.8,39.2,62,30.20,10.0,SE,4.6,-,N/A,,Clear,140,2011-11-21 18:35:00
11:15 AM,53.6,39.2,58,30.21,10.0,SSW,5.8,-,N/A,,Clear,210,2011-11-21 19:15:00
11:35 AM,53.6,39.2,58,30.20,10.0,Calm,Calm,-,N/A,,Clear,0,2011-11-21 19:35:00
11:55 AM,53.6,39.2,58,30.21,10.0,SSW,6.9,-,N/A,,Clear,210,2011-11-21 19:55:00
12:15 PM,53.6,39.2,58,30.20,10.0,South,6.9,-,N/A,,Clear,180,2011-11-21 20:15:00
12:35 PM,51.8,39.2,62,30.20,10.0,SSE,8.1,-,N/A,,Partly Cloudy,150,2011-11-21 20:35:00
12:55 PM,53.6,41.0,62,30.19,10.0,South,9.2,-,N/A,,Partly Cloudy,180,2011-11-21 20:55:00
1:15 PM,55.4,41.0,58,30.18,10.0,SSW,6.9,-,N/A,,Scattered Clouds,200,2011-11-21 21:15:00
1:35 PM,53.6,42.8,67,30.18,10.0,South,6.9,-,N/A,,Scattered Clouds,180,2011-11-21 21:35:00
1:55 PM,55.4,42.8,63,30.17,10.0,South,6.9,-,N/A,,Scattered Clouds,180,2011-11-21 21:55:00
2:15 PM,55.4,42.8,63,30.17,10.0,SW,4.6,-,N/A,,Scattered Clouds,220,2011-11-21 22:15:00
2:35 PM,53.6,42.8,67,30.16,10.0,SW,6.9,-,N/A,,Partly Cloudy,220,2011-11-21 22:35:00
3:15 PM,53.6,42.8,67,30.16,10.0,SW,6.9,-,N/A,,Clear,220,2011-11-21 23:15:00
3:55 PM,53.6,42.8,67,30.18,10.0,WSW,6.9,-,N/A,,Clear,240,2011-11-21 23:55:00
4:15 PM,53.6,42.8,67,30.18,10.0,SW,6.9,-,N/A,,Clear,230,2011-11-22 00:15:00
4:35 PM,51.8,42.8,71,30.19,10.0,SW,4.6,-,N/A,,Clear,230,2011-11-22 00:35:00
4:55 PM,50.0,42.8,76,30.21,10.0,West,3.5,-,N/A,,Clear,260,2011-11-22 00:55:00
5:15 PM,48.2,42.8,82,30.19,10.0,Calm,Calm,-,N/A,,Clear,0,2011-11-22 01:15:00
5:35 PM,48.2,42.8,82,30.20,10.0,Calm,Calm,-,N/A,,Clear,0,2011-11-22 01:35:00
5:55 PM,48.2,42.8,82,30.19,10.0,Calm,Calm,-,N/A,,Clear,0,2011-11-22 01:55:00
6:15 PM,44.6,41.0,87,30.20,10.0,Calm,Calm,-,N/A,,Clear,0,2011-11-22 02:15:00
6:35 PM,44.6,42.8,93,30.21,10.0,Calm,Calm,-,N/A,,Clear,0,2011-11-22 02:35:00
7:15 PM,42.8,41.0,93,30.23,10.0,Calm,Calm,-,N/A,,Clear,0,2011-11-22 03:15:00
7:35 PM,42.8,42.8,100,30.24,10.0,Calm,Calm,-,N/A,,Clear,0,2011-11-22 03:35:00
7:55 PM,42.8,41.0,93,30.23,10.0,Calm,Calm,-,N/A,,Clear,0,2011-11-22 03:55:00
8:15 PM,44.6,42.8,93,30.23,10.0,Calm,Calm,-,N/A,,Clear,0,2011-11-22 04:15:00
8:35 PM,44.6,42.8,93,30.24,10.0,Calm,Calm,-,N/A,,Partly Cloudy,0,2011-11-22 04:35:00
8:55 PM,42.8,41.0,93,30.25,10.0,Calm,Calm,-,N/A,,Partly Cloudy,0,2011-11-22 04:55:00
9:15 PM,42.8,42.8,100,30.25,10.0,Calm,Calm,-,N/A,,Clear,0,2011-11-22 05:15:00
9:35 PM,42.8,42.8,100,30.26,10.0,Calm,Calm,-,N/A,,Clear,0,2011-11-22 05:35:00
9:55 PM,42.8,41.0,93,30.25,10.0,Calm,Calm,-,N/A,,Clear,0,2011-11-22 05:55:00
10:15 PM,44.6,42.8,93,30.25,10.0,ESE,4.6,-,N/A,,Clear,120,2011-11-22 06:15:00
10:35 PM,44.6,42.8,93,30.25,10.0,ESE,5.8,-,N/A,,Clear,120,2011-11-22 06:35:00
10:55 PM,42.8,42.8,100,30.25,10.0,ESE,4.6,-,N/A,,Clear,120,2011-11-22 06:55:00
11:15 PM,44.6,41.0,87,30.25,10.0,ESE,5.8,-,N/A,,Clear,120,2011-11-22 07:15:00
11:35 PM,44.6,41.0,87,30.25,10.0,ESE,6.9,-,N/A,,Clear,120,2011-11-22 07:35:00
11:55 PM,44.6,41.0,87,30.25,10.0,ESE,4.6,-,N/A,,Clear,110,2011-11-22 07:55:00